Location: Auttagershofen
(48.1940°N, 10.0237°E)
Time: 23:49:45
(UTC+00:00)

Cosmos 1943 Rocket - Visible Passes

Search period start: 18 April 2026 00:00
Search period end: 28 April 2026 00:00
Orbit: 809 x 844 km, 71.0° (Epoch: 18 April)

Date Brightness Start Highest point End Pass type
(mag) Time Alt. Az. Time Alt. Az. Time Alt. Az.
18 Apr 3.1 19:31:26 10° NW 19:36:51 47° WSW 19:42:12 10° S visible
19 Apr 2.9 19:11:45 10° NW 19:17:15 53° WSW 19:22:43 10° S visible
20 Apr 2.8 18:52:04 10° NNW 18:57:39 60° WSW 19:03:11 10° S visible
21 Apr 5.0 20:19:26 10° W 20:20:39 11° W 20:21:53 10° WSW visible
22 Apr 4.9 19:58:52 10° WNW 20:01:09 13° W 20:03:26 10° WSW visible
23 Apr 4.8 19:38:41 10° WNW 19:41:39 15° W 19:44:35 10° SW visible
24 Apr 4.8 19:18:40 10° WNW 19:22:07 17° W 19:25:33 10° SW visible
25 Apr 4.7 18:58:44 10° NW 19:02:35 19° W 19:06:25 10° SW visible
